Location: Ambrosina
(19.9365°S, 43.9833°W)
Time: 00:39:08
(UTC+00:00)

Maqsat-H - Pass Details

Date: 11 May 2021
Orbit: 575 x 26399 km, 7.7° (Epoch: 20 June)

Event Time Altitude Azimuth Distance (km) Brightness Sun altitude
Rises 23:02:55 0° 285° (WNW) 9,004 8.5 -36.0°
Reaches altitude 10° 23:12:45 10° 295° (WNW) 5,136 6.9 -38.3°
Enters shadow 23:20:34 24° 338° (NNW) 2,107 4.4 -40.1°
